Location: Jabiru
(12.6667°S, 132.8333°E)
Time: 21:25:14
(UTC+09:30)

KAITUO 1B - Visible Passes

Search period start: 17 November 2019 00:00
Search period end: 27 November 2019 00:00
Orbit: 495 x 517 km, 97.5° (Epoch: 17 November)

Date Brightness Start Highest point End Pass type
(mag) Time Alt. Az. Time Alt. Az. Time Alt. Az.
20 Nov ? 19:28:28 10° SSW 19:30:58 17° WSW 19:33:26 10° WNW visible
21 Nov ? 19:09:59 10° SSW 19:13:18 32° WSW 19:16:35 10° NW visible
22 Nov ? 05:36:13 10° E 05:37:21 11° ESE 05:38:27 10° ESE visible
25 Nov ? 19:33:52 10° SW 19:35:57 15° WSW 19:38:03 10° WNW visible
26 Nov ? 19:15:09 10° SSW 19:18:17 27° WSW 19:21:24 10° NW visible
